Location: Newark
(19.2431°N, 110.4642°E)
Time: 10:32:05
(UTC+00:00)

ISS - Visible Passes

Search period start: 21 August 2019 00:00
Search period end: 31 August 2019 00:00
Orbit: 410 x 420 km, 51.6° (Epoch: 21 August)

Date Brightness Start Highest point End Pass type
(mag) Time Alt. Az. Time Alt. Az. Time Alt. Az.
21 Aug -1.7 21:23:34 10° S 21:26:20 25° SE 21:29:07 10° ENE visible
22 Aug -0.9 20:36:53 11° SE 20:37:44 11° ESE 20:38:53 10° ESE visible
23 Aug -3.8 21:23:44 26° SW 21:25:24 64° NW 21:28:42 10° NNE visible
24 Aug -2.3 20:37:33 37° E 20:37:33 37° E 20:39:55 10° NE visible
25 Aug -1.8 21:24:10 15° NW 21:24:37 16° NW 21:26:44 10° N visible
26 Aug -1.3 20:37:46 17° N 20:37:46 17° N 20:38:47 10° NNE visible
